FW2439 Weather Reports


time (UTC)temp
C
wind
direction
speed
KPH
gust
KPH
rain 1hr
cm
rain 24hr
cm
rain mn
cm
humidity
%
barometer
mb
20260903183046 35 220 1.6 4.8 0.00 0.00 0.00 57 1015.2
20260903181541 34 261 0.0 1.6 0.00 0.00 0.00 60 1015.3
20260903180042 35 340 1.6 4.8 0.00 0.00 0.00 55 1015.4
20260903174536 35 236 0.0 3.2 0.00 0.00 0.00 59 1015.5
20260903173034 35 219 0.0 4.8 0.00 0.00 0.00 59 1015.8
20260903171535 35 333 1.6 6.4 0.00 0.00 0.00 57 1016.0
20260903170040 35 228 0.0 4.8 0.00 0.00 0.00 59 1016.2
20260903164532 35 340 1.6 4.8 0.00 0.00 0.00 60 1016.4
20260903163035 35 316 0.0 4.8 0.00 0.00 0.00 63 1016.5
20260903161525 34 259 1.6 8.0 0.00 0.00 0.00 62 1016.7
20260903160024 34 316 1.6 4.8 0.00 0.00 0.00 64 1016.8
20260903154522 34 314 0.0 4.8 0.00 0.00 0.00 64 1016.9
20260903153018 34 233 0.0 1.6 0.00 0.00 0.00 65 1016.8
20260903151514 33 221 0.0 3.2 0.00 0.00 0.00 66 1016.8
20260903150013 33 283 0.0 1.6 0.00 0.00 0.00 67 1016.9
20260903144508 32 223 0.0 0.0 0.00 0.00 0.00 69 1017.0
20260903143003 32 247 0.0 0.0 0.00 0.00 0.00 73 1016.9
20260903141559 30 246 0.0 0.0 0.00 0.00 0.00 79 1016.9
20260903140106 27 247 0.0 0.0 0.00 0.00 0.00 87 1017.1
20260903134551 26 247 0.0 1.6 0.00 0.00 0.00 91 1017.2
20260903133047 25 265 0.0 1.6 0.00 0.00 0.00 96 1017.3
20260903131542 23 268 0.0 0.0 0.00 0.00 0.00 98 1017.3
20260903130045 23 268 0.0 0.0 0.00 0.00 0.00 99 1017.3
20260903124538 22 268 0.0 0.0 0.00 0.00 0.00 99 1017.3
20260903123036 22 268 0.0 0.0 0.00 0.00 0.00 99 1017.1
20260903121534 22 268 0.0 0.0 0.00 0.00 0.00 99 1017.0
20260903120036 22 268 0.0 0.0 0.00 0.00 0.00 99 1016.8
20260903114532 22 268 0.0 0.0 0.00 0.00 0.00 98 1016.7
20260903113031 22 268 0.0 0.0 0.00 0.00 0.00 98 1016.5
20260903111529 22 268 0.0 0.0 0.00 0.00 0.00 98 1016.3
20260903110029 22 268 0.0 0.0 0.00 0.00 0.00 98 1016.2
20260903104527 22 268 0.0 0.0 0.00 0.00 0.00 98 1016.1
20260903103026 22 268 0.0 0.0 0.00 0.00 0.00 98 1016.0
20260903101540 22 268 0.0 0.0 0.00 0.00 0.00 98 1016.0
20260903100032 22 268 0.0 0.0 0.00 0.00 0.00 98 1015.9
20260903094525 22 268 0.0 0.0 0.00 0.00 0.00 97 1016.1
20260903093032 22 268 0.0 0.0 0.00 0.00 0.00 97 1015.9
20260903091523 22 268 0.0 0.0 0.00 0.00 0.00 97 1016.0
20260903090023 22 268 0.0 0.0 0.00 0.00 0.00 97 1016.0
20260903084530 22 268 0.0 0.0 0.00 0.00 0.00 97 1016.0
20260903083025 22 268 0.0 0.0 0.00 0.00 0.00 97 1015.9
20260903081519 22 268 0.0 0.0 0.00 0.00 0.00 96 1015.7
20260903080036 22 268 0.0 0.0 0.00 0.00 0.00 96 1015.7
20260903074519 22 268 0.0 0.0 0.00 0.00 0.00 96 1015.7
20260903073022 22 268 0.0 0.0 0.00 0.00 0.00 96 1015.7
20260903071515 22 268 0.0 0.0 0.00 0.00 0.00 95 1015.8
20260903070017 22 268 0.0 0.0 0.00 0.00 0.00 95 1015.8
20260903064512 22 268 0.0 0.0 0.00 0.00 0.00 95 1016.0
20260903063011 23 268 0.0 0.0 0.00 0.00 0.00 94 1016.2
20260903061514 23 268 0.0 0.0 0.00 0.00 0.00 94 1016.1
20260903060007 23 268 0.0 0.0 0.00 0.00 0.00 94 1016.1
20260903054509 23 268 0.0 0.0 0.00 0.00 0.00 94 1016.1
20260903053003 23 268 0.0 0.0 0.00 0.00 0.00 94 1016.0
20260903051502 23 268 0.0 0.0 0.00 0.00 0.00 94 1015.9
20260903050100 23 268 0.0 0.0 0.00 0.00 0.00 93 1015.9
20260903044601 23 268 0.0 0.0 0.00 0.00 0.00 93 1015.9
20260903043058 23 268 0.0 0.0 0.00 0.00 0.00 92 1016.0
20260903041610 23 268 0.0 0.0 0.00 0.00 0.00 92 1015.9
20260903040115 24 268 0.0 0.0 0.00 0.00 0.00 91 1015.8
20260903034601 24 268 0.0 0.0 0.00 0.00 0.00 91 1016.0
20260903033055 24 268 0.0 0.0 0.00 0.00 0.00 90 1016.2
20260903031553 25 268 0.0 0.0 0.00 0.00 0.00 90 1016.0
20260903030054 25 268 0.0 0.0 0.00 0.00 0.00 89 1016.1
20260903024554 25 268 0.0 0.0 0.00 0.00 0.00 88 1016.0
20260903023055 25 268 0.0 0.0 0.00 0.00 0.00 87 1015.8
20260903021552 26 268 0.0 0.0 0.00 0.00 0.00 87 1015.7
20260903020052 26 268 0.0 0.0 0.00 0.00 0.00 86 1015.9
20260903014554 26 268 0.0 0.0 0.00 0.00 0.00 85 1015.5
20260903013052 27 268 0.0 0.0 0.00 0.00 0.00 83 1015.3
20260903011553 27 268 0.0 0.0 0.00 0.00 0.00 82 1015.3
20260903010050 28 268 0.0 0.0 0.00 0.00 0.00 79 1015.1
20260903004555 28 268 0.0 0.0 0.00 0.00 0.00 77 1015.2
20260903003049 30 268 0.0 0.0 0.00 0.00 0.00 74 1015.2
20260903001601 30 268 0.0 0.0 0.00 0.00 0.00 71 1015.3
20260903000047 31 268 0.0 0.0 0.00 0.00 0.00 69 1015.2
20260902234547 32 268 0.0 0.0 0.00 0.00 0.00 66 1015.3
20260902233047 33 268 0.0 0.0 0.00 0.00 0.00 63 1015.3
20260902231546 33 267 0.0 0.0 0.00 0.00 0.00 61 1015.3
20260902230047 34 267 0.0 1.6 0.00 0.00 0.00 59 1015.3
20260902224552 35 305 0.0 3.2 0.00 0.00 0.00 55 1015.4
20260902223044 36 283 0.0 4.8 0.00 0.00 0.00 53 1015.4
20260902221547 36 236 0.0 3.2 0.00 0.00 0.00 52 1015.5
20260902220051 36 264 1.6 4.8 0.00 0.00 0.00 52 1015.5
20260902214541 36 245 0.0 6.4 0.00 0.00 0.00 52 1015.6
20260902213047 36 249 1.6 8.0 0.00 0.00 0.00 50 1015.6
20260902211537 36 290 0.0 3.2 0.00 0.00 0.00 51 1015.7
20260902210036 36 280 0.0 4.8 0.00 0.00 0.00 52 1015.8
20260902204535 36 298 1.6 4.8 0.00 0.00 0.00 52 1015.9
20260902203032 36 248 0.0 3.2 0.00 0.00 0.00 50 1016.1
20260902201530 36 248 0.0 1.6 0.00 0.00 0.00 52 1016.3
20260902200030 37 319 1.6 8.0 0.00 0.00 0.00 48 1016.4
20260902194525 36 277 0.0 4.8 0.00 0.00 0.00 53 1016.5
20260902193025 36 232 3.2 6.4 0.00 0.00 0.00 52 1016.6
20260902191522 36 231 1.6 9.7 0.00 0.00 0.00 51 1016.9
20260902190031 36 252 0.0 3.2 0.00 0.00 0.00 52 1017.0
20260902184515 36 226 1.6 8.0 0.00 0.00 0.00 52 1017.2